• In Hungary
  • List of Countries
  • For 7 days
  • Water Temperature
  • Satellite Maps
  • Weather Map
  • News
  • Weather Widgets
  • user-avatar
    Login

    Hourly Weather Totton

    Today, 17 October, Wednesday

    Time Temperature Precipitation Wind Pressure Humidity
    00:00 +11°C° 0 mm 4 mps 759 mmHg 92%
    01:00 +12°C° 0 mm 4 mps 759 mmHg 92%
    02:00 +12°C° 0 mm 4 mps 759 mmHg 92%
    03:00 +12°C° 0 mm 4 mps 759 mmHg 93%
    04:00 +12°C° 0.1 mm 3 mps 759 mmHg 93%
    05:00 +12°C° 0.1 mm 3 mps 759 mmHg 94%
    06:00 +13°C° 0 mm 3 mps 759 mmHg 94%
    07:00 +14°C° 0.3 mm 2 mps 759 mmHg 94%
    08:00 +14°C° 0.3 mm 2 mps 760 mmHg 94%
    09:00 +14°C° 0.3 mm 2 mps 760 mmHg 94%
    10:00 +14°C° 0.3 mm 2 mps 760 mmHg 93%
    11:00 +14°C° 0.3 mm 1 mps 760 mmHg 92%
    12:00 +15°C° 0 mm 1 mps 761 mmHg 90%
    13:00 +15°C° 0.2 mm 1 mps 761 mmHg 90%
    14:00 +14°C° 0.2 mm 1 mps 761 mmHg 91%
    15:00 +13°C° 0.2 mm 0 mps 761 mmHg 91%
    16:00 +14°C° 0 mm 1 mps 761 mmHg 92%
    17:00 +14°C° 0 mm 2 mps 761 mmHg 93%
    18:00 +13°C° 0 mm 2 mps 762 mmHg 93%
    19:00 +13°C° 0 mm 2 mps 762 mmHg 93%
    20:00 +12°C° 0 mm 3 mps 763 mmHg 93%
    21:00 +12°C° 0 mm 3 mps 763 mmHg 92%
    22:00 +12°C° 0 mm 4 mps 763 mmHg 91%
    23:00 +12°C° 0 mm 4 mps 764 mmHg 90%

    Tomorrow, 18 October, Thursday

    Time Temperature Precipitation Wind Pressure Humidity
    00:00 +12°C° 0 mm 5 mps 764 mmHg 89%
    01:00 +10°C° 0 mm 5 mps 764 mmHg 90%
    02:00 +10°C° 0 mm 5 mps 764 mmHg 92%
    03:00 +9°C° 0 mm 5 mps 764 mmHg 93%
    04:00 +9°C° 0 mm 5 mps 764 mmHg 94%
    05:00 +8°C° 0 mm 5 mps 764 mmHg 94%
    06:00 +8°C° 0 mm 5 mps 765 mmHg 94%
    07:00 +9°C° 0 mm 5 mps 765 mmHg 91%
    08:00 +10°C° 0 mm 5 mps 765 mmHg 88%
    09:00 +12°C° 0 mm 5 mps 765 mmHg 85%
    10:00 +13°C° 0 mm 5 mps 765 mmHg 80%
    11:00 +14°C° 0 mm 5 mps 765 mmHg 76%
    12:00 +15°C° 0 mm 6 mps 765 mmHg 71%
    13:00 +15°C° 0 mm 5 mps 765 mmHg 70%
    14:00 +15°C° 0 mm 5 mps 765 mmHg 69%
    15:00 +15°C° 0 mm 5 mps 765 mmHg 68%
    16:00 +14°C° 0 mm 5 mps 765 mmHg 74%
    17:00 +13°C° 0 mm 4 mps 765 mmHg 79%
    18:00 +11°C° 0 mm 4 mps 765 mmHg 84%
    19:00 +11°C° 0 mm 4 mps 765 mmHg 86%
    20:00 +10°C° 0 mm 4 mps 765 mmHg 87%
    21:00 +10°C° 0 mm 4 mps 765 mmHg 88%
    22:00 +10°C° 0 mm 4 mps 765 mmHg 89%
    23:00 +8°C° 0 mm 4 mps 765 mmHg 90%

    Day after tomorrow, 19 October, Friday

    Time Temperature Precipitation Wind Pressure Humidity
    00:00 +9°C° 0 mm 3 mps 765 mmHg 91%
    01:00 +9°C° 0 mm 3 mps 765 mmHg 92%
    02:00 +9°C° 0 mm 3 mps 765 mmHg 93%
    03:00 +8°C° 0 mm 3 mps 765 mmHg 94%
    04:00 +8°C° 0 mm 3 mps 765 mmHg 94%
    05:00 +8°C° 0 mm 3 mps 765 mmHg 94%
    06:00 +8°C° 0 mm 3 mps 765 mmHg 94%
    07:00 +9°C° 0 mm 3 mps 765 mmHg 91%
    08:00 +10°C° 0 mm 3 mps 765 mmHg 87%
    09:00 +11°C° 0 mm 3 mps 766 mmHg 83%
    10:00 +14°C° 0 mm 2 mps 766 mmHg 78%
    11:00 +15°C° 0 mm 2 mps 766 mmHg 73%
    12:00 +16°C° 0 mm 2 mps 766 mmHg 67%
    13:00 +17°C° 0 mm 2 mps 766 mmHg 66%
    14:00 +17°C° 0 mm 2 mps 766 mmHg 64%
    15:00 +17°C° 0 mm 2 mps 766 mmHg 63%
    16:00 +16°C° 0 mm 2 mps 766 mmHg 69%
    17:00 +14°C° 0 mm 2 mps 766 mmHg 75%
    18:00 +13°C° 0 mm 2 mps 766 mmHg 81%
    19:00 +12°C° 0 mm 2 mps 767 mmHg 83%
    20:00 +12°C° 0 mm 2 mps 768 mmHg 84%
    21:00 +10°C° 0 mm 2 mps 768 mmHg 86%
    22:00 +10°C° 0 mm 2 mps 768 mmHg 87%
    23:00 +10°C° 0 mm 2 mps 768 mmHg 88%

    20 October, Saturday

    Time Temperature Precipitation Wind Pressure Humidity
    00:00 +9°C° 0 mm 2 mps 768 mmHg 89%
    01:00 +9°C° 0 mm 2 mps 768 mmHg 89%
    02:00 +9°C° 0 mm 2 mps 768 mmHg 90%
    03:00 +9°C° 0 mm 2 mps 769 mmHg 90%
    04:00 +9°C° 0 mm 2 mps 769 mmHg 90%
    05:00 +9°C° 0 mm 2 mps 769 mmHg 90%
    06:00 +9°C° 0 mm 2 mps 769 mmHg 90%
    07:00 +10°C° 0 mm 2 mps 769 mmHg 86%
    08:00 +12°C° 0 mm 2 mps 770 mmHg 82%
    09:00 +13°C° 0 mm 2 mps 770 mmHg 78%
    10:00 +15°C° 0 mm 2 mps 770 mmHg 73%
    11:00 +16°C° 0 mm 2 mps 770 mmHg 67%
    12:00 +17°C° 0 mm 2 mps 770 mmHg 61%
    13:00 +18°C° 0 mm 2 mps 770 mmHg 61%
    14:00 +18°C° 0 mm 2 mps 770 mmHg 60%
    15:00 +19°C° 0 mm 1 mps 770 mmHg 59%
    16:00 +16°C° 0 mm 1 mps 770 mmHg 66%
    17:00 +15°C° 0 mm 1 mps 770 mmHg 73%
    18:00 +13°C° 0 mm 1 mps 770 mmHg 80%
    19:00 +13°C° 0 mm 1 mps 770 mmHg 81%
    20:00 +12°C° 0 mm 1 mps 770 mmHg 83%
    21:00 +12°C° 0 mm 1 mps 770 mmHg 84%
    22:00 +12°C° 0 mm 1 mps 770 mmHg 85%
    23:00 +11°C° 0 mm 1 mps 770 mmHg 86%

    21 October, Sunday

    Time Temperature Precipitation Wind Pressure Humidity
    00:00 +11°C° 0 mm 1 mps 769 mmHg 87%
    01:00 +11°C° 0 mm 1 mps 769 mmHg 87%
    02:00 +11°C° 0 mm 1 mps 769 mmHg 88%
    03:00 +10°C° 0 mm 1 mps 769 mmHg 88%
    04:00 +10°C° 0 mm 1 mps 769 mmHg 88%
    05:00 +10°C° 0 mm 1 mps 769 mmHg 88%
    06:00 +10°C° 0 mm 1 mps 768 mmHg 88%
    07:00 +11°C° 0 mm 1 mps 769 mmHg 84%
    08:00 +12°C° 0 mm 1 mps 769 mmHg 80%
    09:00 +14°C° 0 mm 1 mps 769 mmHg 76%
    10:00 +15°C° 0 mm 1 mps 769 mmHg 70%
    11:00 +16°C° 0 mm 1 mps 769 mmHg 64%
    12:00 +19°C° 0 mm 1 mps 769 mmHg 58%
    13:00 +19°C° 0 mm 1 mps 768 mmHg 58%
    14:00 +19°C° 0 mm 1 mps 768 mmHg 58%
    15:00 +20°C° 0 mm 1 mps 768 mmHg 58%
    16:00 +17°C° 0 mm 2 mps 768 mmHg 65%
    17:00 +15°C° 0 mm 2 mps 768 mmHg 73%
    18:00 +12°C° 0 mm 3 mps 768 mmHg 80%
    19:00 +13°C° 0 mm 3 mps 769 mmHg 83%
    20:00 +13°C° 0 mm 4 mps 769 mmHg 86%
    21:00 +13°C° 0 mm 4 mps 769 mmHg 89%
    22:00 +13°C° 0 mm 5 mps 770 mmHg 86%
    23:00 +13°C° 0 mm 6 mps 770 mmHg 84%

    22 October, Monday

    Time Temperature Precipitation Wind Pressure Humidity
    00:00 +11°C° 0 mm 7 mps 770 mmHg 81%
    01:00 +11°C° 0.1 mm 7 mps 771 mmHg 78%
    02:00 +10°C° 0.1 mm 7 mps 771 mmHg 76%
    03:00 +10°C° 0.1 mm 7 mps 771 mmHg 73%
    04:00 +9°C° 0 mm 7 mps 772 mmHg 76%
    05:00 +8°C° 0 mm 7 mps 772 mmHg 78%
    06:00 +6°C° 0 mm 7 mps 773 mmHg 81%
    07:00 +8°C° 0 mm 7 mps 773 mmHg 78%
    08:00 +8°C° 0 mm 7 mps 774 mmHg 76%
    09:00 +8°C° 0 mm 7 mps 774 mmHg 73%
    10:00 +9°C° 0 mm 7 mps 774 mmHg 68%
    11:00 +10°C° 0 mm 7 mps 775 mmHg 63%
    12:00 +11°C° 0 mm 6 mps 775 mmHg 57%
    13:00 +11°C° 0 mm 6 mps 775 mmHg 57%
    14:00 +11°C° 0 mm 6 mps 775 mmHg 56%
    15:00 +11°C° 0 mm 6 mps 774 mmHg 56%
    16:00 +10°C° 0 mm 6 mps 775 mmHg 61%
    17:00 +8°C° 0 mm 5 mps 775 mmHg 66%
    18:00 +7°C° 0 mm 5 mps 775 mmHg 71%
    19:00 +7°C° 0 mm 5 mps 775 mmHg 75%
    20:00 +6°C° 0 mm 5 mps 776 mmHg 79%
    21:00 +6°C° 0 mm 5 mps 776 mmHg 83%
    22:00 +6°C° 0 mm 5 mps 775 mmHg 85%
    23:00 +6°C° 0 mm 4 mps 775 mmHg 87%
    Show more